This is the latest recevied weather packets stored in our database for station/object N9ALD. If no packets are shown the sender has not sent any weather packets the latest 10 day(s).
| Time | Temp. | Humidity | Pressure | Rain* | Wind** | Luminosity | Snow |
|---|---|---|---|---|---|---|---|
| 1777668151 | 11.67° C | 54% | 1012.9 hPa | 0 mm | - | 150 W/m² | - |
| 1777667847 | 12.22° C | 58% | 1012.9 hPa | 0 mm | - | 186 W/m² | - |
| 1777667545 | 12.22° C | 53% | 1013.1 hPa | 0 mm | - | 226 W/m² | - |
| 1777667242 | 11.67° C | 55% | 1013 hPa | 0 mm | - | 272 W/m² | - |
| 1777666939 | 11.67° C | 55% | 1013.2 hPa | 0 mm | - | 214 W/m² | - |
| 1777666635 | 11.67° C | 58% | 1013 hPa | 0 mm | - | 193 W/m² | - |
| 1777666332 | 11.67° C | 53% | 1013.1 hPa | 0 mm | - | 224 W/m² | - |
| 1777666029 | 11.67° C | 53% | 1013.2 hPa | 0 mm | - | 271 W/m² | - |
| 1777665726 | 12.22° C | 55% | 1013.1 hPa | 0 mm | - | 304 W/m² | - |
| 1777665424 | 11.67° C | 54% | 1013.1 hPa | 0 mm | - | 281 W/m² | - |
| 1777665119 | 12.22° C | 54% | 1013 hPa | 0 mm | - | 153 W/m² | - |
| 1777664815 | 12.78° C | 52% | 1013.1 hPa | 0 mm | - | 169 W/m² | - |
| 1777664510 | 13.33° C | 55% | 1013 hPa | 0 mm | - | 189 W/m² | - |
| 1777664208 | 12.78° C | 52% | 1013 hPa | 0 mm | - | 832 W/m² | - |
| 1777663907 | 12.22° C | 55% | 1013.2 hPa | 0 mm | - | 838 W/m² | - |
| 1777663603 | 11.67° C | 55% | 1013.1 hPa | 0 mm | - | 755 W/m² | - |
| 1777663301 | 11.67° C | 54% | 1013.3 hPa | 0 mm | - | 664 W/m² | - |
| 1777662998 | 12.22° C | 56% | 1013.3 hPa | 0 mm | - | 176 W/m² | - |
| 1777662695 | 12.78° C | 57% | 1013.3 hPa | 0 mm | - | 216 W/m² | - |
| 1777662391 | 12.22° C | 55% | 1013.2 hPa | 0 mm | - | 849 W/m² | - |
| 1777662086 | 12.22° C | 60% | 1013.1 hPa | 0 mm | - | 840 W/m² | - |
| 1777661783 | 12.22° C | 59% | 1013.1 hPa | 0 mm | - | 287 W/m² | - |
| 1777661478 | 12.22° C | 55% | 1013.1 hPa | 0 mm | - | 853 W/m² | - |
| 1777661175 | 12.22° C | 59% | 1013.1 hPa | 0 mm | - | 897 W/m² | - |
| 1777660870 | 11.11° C | 61% | 1012.9 hPa | 0 mm | - | 439 W/m² | - |
* Rain latest hour (hover to see other rain measurements)
** Current wind speed in m/s (hover to see current wind gust speed)